User: anonymous   Login
Location: Theydon Bois
(51.6750°N, 0.1050°E)
Time: 14:42:05
(UTC+01:00)
Language:

Cosmos 1980 Rocket - Orbit

View from above orbital plane
View from above orbital plane
View from above satellite
View from above satellite

Ground track
Ground track

The orbit data is extracted from the following two-line orbital elements,

1 19650U 88102B   17295.89349136 -.00000134 +00000-0 -43929-4 0  9998
2 19650 070.9975 106.5647 0014972 339.9029 020.1502 14.15761049493797
Epoch (UTC): 22 October 2017 21:26:37
Eccentricity: 0.0014972
inclination: 70.9975°
perigee height: 829 km
apogee height: 850 km
right ascension of ascending node: 106.5647°
argument of perigee: 339.9029°
revolutions per day: 14.15761049
mean anomaly at epoch: 20.1502°
orbit number at epoch: 49379

The dashed part of the orbit path shows where the satellite is in the earth's shadow,  

DLR